Weather History for Jackson, KY

Change the Weather History Date:

Thursday, October 10, 2013

  Actual Average Record
Temperature  
Mean Temperature 16 °C 16 °C  
Max Temperature 23 °C 21 °C 28 °C (2010)
Min Temperature 9 °C 10 °C 0 °C (2000)
Degree Days  
Heating Degree Days 4 7  
Month to date heating degree days 22 56  
Since 1 July heating degree days 52 108  
Cooling Degree Days 0 1  
Month to date cooling degree days 39 16  
Year to date cooling degree days 1065 1137  
Growing Degree Days 10 (Base 50)    
Moisture  
Dew Point 7 °C    
Average Humidity 62    
Maximum Humidity 86    
Minimum Humidity 38    
Precipitation  
Precipitation 0.00 mm 2.54 mm 3.20 mm (2002)
Month to date precipitation 0.63 1.01  
Year to date precipitation 45.12 38.02  
Snow  
Snow 0.00 cm 0.00 cm - ()
Month to date snowfall 0.0 0.0  
Since 1 July snowfall 0.0 0.0  
Since 1 September snowfall 0.0 0.0  
Snow Depth 0.00 cm    
Sea Level Pressure  
Sea Level Pressure 1020 hPa    
Wind  
Wind Speed 1 km/h (NNW)    
Max Wind Speed 10 km/h    
Max Gust Speed 19 km/h    
Visibility 16 kilometers    
Events      
T = Trace of Precipitation, MM = Missing Value Source: NWS Daily Summary

Daily Weather History Graph

Daily Weather History Graph

Search for Another Location

Airport:

Trip Planner

Search our weather history database for the weather conditions in past years. The results will help you decide how hot, cold, wet, or windy it might be!

Date:

Astronomy

Oct. 10, 2013 Rise Set
Actual Time 7:37 AM EDT 7:02 PM EDT
Civil Twilight 7:10 AM EDT 7:28 PM EDT
Nautical Twilight 6:40 AM EDT 7:59 PM EDT
Astronomical Twilight 6:10 AM EDT 8:29 PM EDT
Moon 1:23 PM EDT (10/10) 11:43 PM EDT (10/10)
Length of Visible Light 12h 18m
Length of Day
11h 25m
Waxing Crescent, 35% of the Moon is Illuminated
Oct 10
Waxing Crescent
Oct 11
First Quarter
Oct 18
Full
Oct 26
Last Quarter
Nov 3
New

Hourly Weather History & Observations

Time (EDT) Temp. Dew Point Humidity Pressure Visibility Wind Dir Wind Speed Gust Speed Precip Events Conditions
12:53 AM 14.4 °C 6.7 °C 60% 1020.3 hPa 16.1 km Calm Calm - N/A   Clear
1:53 AM 14.4 °C 6.1 °C 58% 1020.1 hPa 16.1 km Calm Calm - N/A   Clear
2:53 AM 12.8 °C 6.1 °C 64% 1020.0 hPa 16.1 km Calm Calm - N/A   Clear
3:53 AM 11.1 °C 6.7 °C 74% 1019.8 hPa 16.1 km Calm Calm - N/A   Clear
4:53 AM 11.1 °C 6.7 °C 74% 1020.1 hPa 16.1 km Calm Calm - N/A   Clear
5:53 AM 11.1 °C 6.7 °C 74% 1020.3 hPa 16.1 km Calm Calm - N/A   Clear
6:53 AM 10.0 °C 6.1 °C 77% 1020.8 hPa 16.1 km Calm Calm - N/A   Clear
7:53 AM 8.9 °C 6.7 °C 86% 1021.0 hPa 16.1 km Calm Calm - N/A   Clear
8:53 AM 11.1 °C 8.3 °C 83% 1021.4 hPa 16.1 km Calm Calm - N/A   Clear
9:53 AM 13.3 °C 8.9 °C 75% 1021.6 hPa 16.1 km Calm Calm - N/A   Clear
10:53 AM 16.1 °C 9.4 °C 64% 1021.4 hPa 16.1 km Calm Calm - N/A   Clear
11:53 AM 18.9 °C 8.3 °C 50% 1021.3 hPa 16.1 km Calm Calm - N/A   Clear
12:53 PM 20.6 °C 8.3 °C 45% 1020.9 hPa 16.1 km Variable 7.4 km/h / 2.1 m/s - N/A   Clear
1:53 PM 21.7 °C 6.7 °C 38% 1020.1 hPa 16.1 km NNW 5.6 km/h / 1.5 m/s - N/A   Clear
2:53 PM 22.2 °C 6.7 °C 37% 1019.7 hPa 16.1 km Variable 7.4 km/h / 2.1 m/s - N/A   Clear
3:53 PM 22.8 °C 7.8 °C 38% 1019.4 hPa 16.1 km Calm Calm - N/A   Scattered Clouds
4:53 PM 22.2 °C 7.8 °C 40% 1019.0 hPa 16.1 km Calm Calm - N/A   Clear
5:53 PM 21.7 °C 8.3 °C 42% 1018.7 hPa 16.1 km Calm Calm - N/A   Clear
6:53 PM 18.9 °C 8.3 °C 50% 1018.8 hPa 16.1 km Calm Calm - N/A   Clear
7:53 PM 17.8 °C 7.8 °C 52% 1018.9 hPa 16.1 km Calm Calm - N/A   Clear
8:53 PM 16.7 °C 7.8 °C 56% 1018.6 hPa 16.1 km Calm Calm - N/A   Clear
9:53 PM 15.6 °C 8.3 °C 62% 1018.6 hPa 16.1 km Calm Calm - N/A   Clear
10:53 PM 16.1 °C 7.2 °C 56% 1018.5 hPa 16.1 km Calm Calm - N/A   Clear
11:53 PM 16.1 °C 7.2 °C 56% 1017.9 hPa 16.1 km Calm Calm - N/A   Clear